Weather History for Amsterdam, Netherlands

Change the Weather History Date:

Saturday, February 23, 2013

  Actual Average Record
Temperature  
Mean Temperature 29 °F -  
Max Temperature 33 °F 47 °F 60 °F (1999)
Min Temperature 25 °F 36 °F 25 °F (2013)
Degree Days  
Heating Degree Days 36    
Moisture  
Dew Point 21 °F    
Average Humidity 67    
Maximum Humidity 75    
Minimum Humidity 51    
Precipitation  
Precipitation 0.00 in - - ()
Sea Level Pressure  
Sea Level Pressure 30.08 in    
Wind  
Wind Speed 13 mph ()    
Max Wind Speed 23 mph    
Max Gust Speed 30 mph    
Visibility 6.4 miles    
Events Snow    
Averages and records for this station are not official NWS values.
T = Trace of Precipitation, MM = Missing Value Source: Averaged Metar Reports

Daily Weather History Graph

Daily Weather History Graph

Search for Another Location

Airport:

Trip Planner

Search our weather history database for the weather conditions in past years. The results will help you decide how hot, cold, wet, or windy it might be!

Date:

Astronomy

Feb. 23, 2013 Rise Set
Actual Time 7:39 AM CET 6:09 PM CET
Civil Twilight 7:05 AM CET 6:43 PM CET
Nautical Twilight 6:26 AM CET 7:23 PM CET
Astronomical Twilight 5:46 AM CET 8:02 PM CET
Moon 3:54 PM CET (2/23) 6:04 AM CET (2/23)
Length of Visible Light 11h 38m
Length of Day
10h 29m
Waxing Gibbous, 94% of the Moon is Illuminated
Feb 23
Waxing Gibbous
Feb 25
Full
Mar 4
Last Quarter
Mar 11
New
Mar 19
First Quarter

Hourly Weather History & Observations

Time (CET) Temp. Windchill Dew Point Humidity Pressure Visibility Wind Dir Wind Speed Gust Speed Precip Events Conditions
12:25 AM 28.4 °F 18.0 °F 17.6 °F 64% 30.09 in 6.2 mi ENE 12.7 mph - N/A   Partly Cloudy
12:55 AM 26.6 °F 15.2 °F 17.6 °F 69% 30.09 in 6.2 mi ENE 13.8 mph - N/A   Partly Cloudy
1:00 AM 28 °F - 17 °F 51% 30.12 in 6 mi ENE 13.4 mph - -   Partly Cloudy
1:25 AM 26.6 °F 15.2 °F 17.6 °F 69% 30.09 in 6.2 mi ENE 13.8 mph - N/A   Partly Cloudy
1:55 AM 26.6 °F 15.7 °F 17.6 °F 69% 30.09 in 5.6 mi ENE 12.7 mph - N/A   Unknown
2:25 AM 26.6 °F 16.8 °F 17.6 °F 69% 30.09 in 5.6 mi ENE 10.4 mph - N/A   Unknown
2:55 AM 26.6 °F 17.5 °F 17.6 °F 69% 30.09 in 5.6 mi ENE 9.2 mph - N/A   Unknown
3:25 AM 26.6 °F 17.5 °F 15.8 °F 64% 30.09 in 5.6 mi ENE 9.2 mph - N/A   Partly Cloudy
3:55 AM 26.6 °F 16.2 °F 17.6 °F 69% 30.09 in 5.6 mi ENE 11.5 mph - N/A   Partly Cloudy
4:00 AM 27 °F - 17 °F 56% 30.10 in 6 mi ENE 11.2 mph - -   Light Haze
4:25 AM 26.6 °F 16.8 °F 17.6 °F 69% 30.09 in 5.0 mi ENE 10.4 mph - N/A   Partly Cloudy
4:55 AM 26.6 °F 16.2 °F 17.6 °F 69% 30.09 in 5.0 mi ENE 11.5 mph - N/A   Unknown
5:25 AM 26.6 °F 16.2 °F 19.4 °F 74% 30.06 in 5.0 mi NE 11.5 mph - N/A   Unknown
5:55 AM 26.6 °F 16.8 °F 19.4 °F 74% 30.06 in 4.3 mi NE 10.4 mph - N/A   Unknown
6:25 AM 26.6 °F 16.2 °F 19.4 °F 74% 30.09 in 5.0 mi NE 11.5 mph - N/A   Unknown
6:55 AM 26.6 °F 16.2 °F 19.4 °F 74% 30.06 in 5.0 mi NE 11.5 mph - N/A   Unknown
7:00 AM 27 °F - 19 °F 63% 30.09 in 5 mi NE 11.2 mph - -   Light Haze
7:25 AM 26.6 °F 16.2 °F 19.4 °F 74% 30.09 in 5.0 mi NE 11.5 mph - N/A   Unknown
7:55 AM 28.4 °F 18.5 °F 19.4 °F 69% 30.09 in 5.6 mi NE 11.5 mph - N/A   Unknown
8:25 AM 28.4 °F 19.1 °F 21.2 °F 74% 30.09 in 5.6 mi NE 10.4 mph - N/A   Unknown
8:55 AM 28.4 °F 15.8 °F 21.2 °F 74% 30.09 in 5.6 mi NE 18.4 mph - N/A   Unknown
9:25 AM 30.2 °F 18.5 °F 21.2 °F 69% 30.09 in 5.6 mi NE 17.3 mph - N/A   Mostly Cloudy
9:55 AM 30.2 °F 18.1 °F 19.4 °F 64% 30.09 in 6.2 mi NE 18.4 mph - N/A   Scattered Clouds
10:00 AM 30 °F - 19 °F 53% 30.12 in 7 mi NE 17.9 mph - -   Mostly Cloudy
10:25 AM 30.2 °F 18.1 °F 19.4 °F 64% 30.09 in 6.2 mi NE 18.4 mph - N/A   Scattered Clouds
10:55 AM 32.0 °F 21.2 °F 21.2 °F 64% 30.09 in 6.2 mi NE 16.1 mph - N/A   Mostly Cloudy
11:25 AM 32.0 °F 21.2 °F 21.2 °F 64% 30.09 in 6.2 mi NE 16.1 mph - N/A   Mostly Cloudy
11:55 AM 32.0 °F 20.8 °F 21.2 °F 64% 30.09 in 6.2 mi NNE 17.3 mph - N/A   Mostly Cloudy
12:25 PM 33.8 °F 23.2 °F 21.2 °F 60% 30.09 in 6.2 mi NE 17.3 mph - N/A   Mostly Cloudy
12:55 PM 32.0 °F 20.1 °F 21.2 °F 64% 30.09 in 6.2 mi NNE 19.6 mph - N/A   Mostly Cloudy
1:00 PM 33 °F - 22 °F 51% 30.09 in 14 mi NE 20.1 mph - -   Partly Cloudy
1:25 PM 33.8 °F 21.6 °F 21.2 °F 60% 30.06 in 6.2 mi NE 23.0 mph - N/A   Mostly Cloudy
1:55 PM 33.8 °F 21.9 °F 21.2 °F 60% 30.06 in 6.2 mi NE 21.9 mph - N/A   Overcast
2:55 PM 33.8 °F 22.8 °F 21.2 °F 60% 30.06 in 6.2 mi NE 18.4 mph 29.9 mph N/A   Mostly Cloudy
3:25 PM 33.8 °F 23.5 °F 21.2 °F 60% 30.06 in 6.2 mi NE 16.1 mph - N/A   Mostly Cloudy
3:55 PM 33.8 °F 22.2 °F 21.2 °F 60% 30.06 in 6.2 mi NE 20.7 mph - N/A   Mostly Cloudy
4:00 PM 33 °F - 22 °F 51% 30.08 in 16 mi NE 15.7 mph - -   Overcast
4:25 PM 33.8 °F 23.5 °F 23.0 °F 65% 30.06 in 6.2 mi NE 16.1 mph - N/A   Mostly Cloudy
4:55 PM 33.8 °F 22.2 °F 21.2 °F 60% 30.06 in 6.2 mi NNE 20.7 mph - N/A   Overcast
5:25 PM 32.0 °F 20.8 °F 21.2 °F 64% 30.06 in 6.2 mi NNE 17.3 mph - N/A   Overcast
5:55 PM 32.0 °F 21.6 °F 23.0 °F 69% 30.06 in 6.2 mi NNE 15.0 mph - N/A   Overcast
6:25 PM 32.0 °F 21.6 °F 23.0 °F 69% 30.06 in 6.2 mi NNE 15.0 mph - N/A   Overcast
6:55 PM 32.0 °F 20.8 °F 23.0 °F 69% 30.06 in 6.2 mi NNE 17.3 mph - N/A   Overcast
7:00 PM 33 °F - 24 °F 58% 30.09 in 13 mi NNE 15.7 mph - -   Partly Cloudy
7:25 PM 32.0 °F 22.1 °F 24.8 °F 75% 30.09 in 6.2 mi NNE 13.8 mph - N/A   Overcast
7:55 PM 32.0 °F 21.6 °F 24.8 °F 75% 30.09 in 6.2 mi NE 15.0 mph - N/A   Overcast
8:25 PM 32.0 °F 21.2 °F 24.8 °F 75% 30.06 in 6.2 mi NNE 16.1 mph - N/A   Overcast
8:55 PM 32.0 °F 21.6 °F 24.8 °F 75% 30.09 in 6.2 mi NE 15.0 mph - N/A   Overcast
9:25 PM 32.0 °F 21.6 °F 24.8 °F 75% 30.09 in 6.2 mi NNE 15.0 mph - N/A   Overcast
9:55 PM 32.0 °F 21.2 °F 23.0 °F 69% 30.09 in 6.2 mi NNE 16.1 mph - N/A   Overcast
10:00 PM 32 °F - 24 °F 61% 30.11 in 10 mi NNE 15.7 mph - -   Overcast
10:25 PM 32.0 °F 21.6 °F 24.8 °F 75% 30.09 in 6.2 mi NNE 15.0 mph - N/A Snow Light Snow
10:55 PM 32.0 °F 22.1 °F 24.8 °F 75% 30.09 in 6.2 mi NNE 13.8 mph - N/A Snow Light Snow
11:25 PM 32.0 °F 20.5 °F 24.8 °F 75% 30.09 in 6.2 mi NNE 18.4 mph - N/A Snow Snow Grains
11:55 PM 32.0 °F 21.2 °F 24.8 °F 75% 30.09 in 6.2 mi NNE 16.1 mph - N/A Snow Light Snow